| time (UTC) | temp F | wind direction | speed MPH | gust MPH | rain 1hr in | rain 24hr in | rain mn in | humidity % | barometer mb |
| 20260505061504 | 63 | 215 | 2.0 | 7.0 | 0.00 | 0.04 | 0.04 | 76 | 1011.1 |
| 20260505061004 | 63 | 307 | 3.0 | 8.0 | 0.00 | 0.04 | 0.04 | 76 | 1011.1 |
| 20260505060505 | 63 | 49 | 2.0 | 9.0 | 0.00 | 0.04 | 0.04 | 77 | 1011.1 |
| 20260505055005 | 63 | 211 | 3.0 | 8.0 | 0.00 | 0.04 | 0.04 | 77 | 1011.1 |
| 20260505054005 | 63 | 152 | 2.0 | 5.0 | 0.00 | 0.04 | 0.04 | 77 | 1011.2 |
| 20260505052504 | 63 | 169 | 2.0 | 8.0 | 0.00 | 0.04 | 0.04 | 77 | 1011.2 |
| 20260505051504 | 63 | 355 | 2.0 | 7.0 | 0.02 | 0.04 | 0.04 | 77 | 1011.2 |
| 20260505050504 | 63 | 179 | 2.0 | 7.0 | 0.04 | 0.04 | 0.04 | 77 | 1011.3 |
| 20260505040505 | 64 | 197 | 3.0 | 9.0 | 0.00 | 0.00 | 0.00 | 76 | 1011.4 |
| 20260505040005 | 64 | 187 | 2.0 | 12.0 | 0.00 | 0.00 | 0.00 | 76 | 1011.4 |
| 20260505035004 | 64 | 155 | 2.0 | 7.0 | 0.00 | 0.00 | 0.00 | 76 | 1011.3 |
| 20260505034505 | 63 | 268 | 2.0 | 5.0 | 0.00 | 0.00 | 0.00 | 76 | 1011.3 |
| 20260505033504 | 63 | 129 | 1.0 | 3.0 | 0.00 | 0.00 | 0.00 | 76 | 1011.3 |
| 20260505033004 | 63 | 298 | 1.0 | 3.0 | 0.00 | 0.00 | 0.00 | 76 | 1011.2 |
| 20260505032504 | 63 | 108 | 2.0 | 5.0 | 0.00 | 0.00 | 0.00 | 76 | 1011.3 |
| 20260505031004 | 63 | 167 | 2.0 | 6.0 | 0.00 | 0.00 | 0.00 | 76 | 1011.1 |
| 20260505024005 | 63 | 182 | 1.0 | 6.0 | 0.00 | 0.00 | 0.00 | 76 | 1011.4 |
| 20260505023004 | 63 | 160 | 2.0 | 7.0 | 0.00 | 0.00 | 0.00 | 76 | 1011.4 |
| 20260505022505 | 63 | 169 | 1.0 | 3.0 | 0.00 | 0.00 | 0.00 | 76 | 1011.3 |
| 20260505021504 | 63 | 148 | 2.0 | 3.0 | 0.00 | 0.00 | 0.00 | 75 | 1011.4 |
| 20260505021004 | 63 | 183 | 4.0 | 8.0 | 0.00 | 0.00 | 0.00 | 75 | 1011.5 |
| 20260505014504 | 63 | 140 | 2.0 | 8.0 | 0.00 | 0.00 | 0.00 | 75 | 1011.4 |
| 20260505013505 | 63 | 149 | 3.0 | 7.0 | 0.00 | 0.00 | 0.00 | 74 | 1011.4 |
| 20260505013004 | 63 | 179 | 2.0 | 7.0 | 0.00 | 0.00 | 0.00 | 75 | 1011.4 |
| 20260505012005 | 63 | 160 | 2.0 | 9.0 | 0.00 | 0.00 | 0.00 | 74 | 1011.4 |
| 20260505010505 | 63 | 150 | 2.0 | 6.0 | 0.00 | 0.00 | 0.00 | 73 | 1011.3 |
| 20260505010004 | 63 | 140 | 2.0 | 5.0 | 0.00 | 0.00 | 0.00 | 73 | 1011.3 |
| 20260505003504 | 64 | 126 | 2.0 | 5.0 | 0.00 | 0.00 | 0.00 | 72 | 1011.2 |
| 20260505003005 | 64 | 102 | 1.0 | 3.0 | 0.00 | 0.00 | 0.00 | 71 | 1011.3 |
| 20260505002505 | 64 | 160 | 2.0 | 5.0 | 0.00 | 0.00 | 0.00 | 71 | 1011.3 |
| 20260505002004 | 64 | 175 | 2.0 | 5.0 | 0.00 | 0.00 | 0.00 | 70 | 1011.3 |
| 20260505001005 | 65 | 165 | 1.0 | 5.0 | 0.00 | 0.00 | 0.00 | 69 | 1011.2 |
| 20260505000505 | 65 | 178 | 3.0 | 9.0 | 0.00 | 0.00 | 0.00 | 69 | 1011.1 |
| 20260505000004 | 65 | 175 | 3.0 | 5.0 | 0.00 | 0.00 | 0.00 | 69 | 1011.1 |
| 20260504234504 | 66 | 16 | 1.0 | 5.0 | 0.00 | 0.00 | 0.00 | 66 | 1010.9 |
| 20260504234005 | 66 | 121 | 2.0 | 5.0 | 0.00 | 0.00 | 0.00 | 65 | 1010.9 |
| 20260504232505 | 67 | 198 | 2.0 | 5.0 | 0.00 | 0.00 | 0.00 | 63 | 1010.7 |
| 20260504231004 | 68 | 135 | 3.0 | 7.0 | 0.00 | 0.00 | 0.00 | 61 | 1010.6 |
| 20260504223504 | 70 | 169 | 2.0 | 12.0 | 0.00 | 0.00 | 0.00 | 56 | 1010.7 |
| 20260504223004 | 70 | 136 | 3.0 | 10.0 | 0.00 | 0.00 | 0.00 | 54 | 1010.6 |
| 20260504222504 | 71 | 150 | 3.0 | 12.0 | 0.00 | 0.00 | 0.00 | 53 | 1010.6 |
| 20260504222004 | 71 | 187 | 3.0 | 12.0 | 0.00 | 0.00 | 0.00 | 52 | 1010.6 |
| 20260504221504 | 72 | 152 | 5.0 | 9.0 | 0.00 | 0.00 | 0.00 | 51 | 1010.6 |
| 20260504220504 | 75 | 157 | 5.0 | 12.0 | 0.00 | 0.00 | 0.00 | 45 | 1010.5 |
| 20260504215004 | 75 | 119 | 2.0 | 10.0 | 0.00 | 0.00 | 0.00 | 36 | 1010.6 |
| 20260504213505 | 76 | 3 | 3.0 | 8.0 | 0.00 | 0.00 | 0.00 | 36 | 1010.6 |
| 20260504213005 | 76 | 223 | 4.0 | 10.0 | 0.00 | 0.00 | 0.00 | 34 | 1010.6 |
| 20260504212004 | 76 | 231 | 4.0 | 10.0 | 0.00 | 0.00 | 0.00 | 33 | 1010.6 |
| 20260504210504 | 76 | 255 | 2.0 | 9.0 | 0.00 | 0.00 | 0.00 | 33 | 1010.5 |
| 20260504205504 | 76 | 59 | 2.0 | 10.0 | 0.00 | 0.00 | 0.00 | 33 | 1010.6 |
| 20260504203504 | 76 | 310 | 3.0 | 12.0 | 0.00 | 0.00 | 0.00 | 35 | 1010.7 |
| 20260504202504 | 76 | 188 | 3.0 | 12.0 | 0.00 | 0.00 | 0.00 | 35 | 1010.6 |
| 20260504201504 | 77 | 254 | 4.0 | 12.0 | 0.00 | 0.00 | 0.00 | 35 | 1010.7 |
| 20260504201004 | 77 | 236 | 2.0 | 8.0 | 0.00 | 0.00 | 0.00 | 35 | 1010.8 |
| 20260504200504 | 77 | 215 | 3.0 | 8.0 | 0.00 | 0.00 | 0.00 | 34 | 1010.7 |
| 20260504200005 | 76 | 293 | 2.0 | 5.0 | 0.00 | 0.00 | 0.00 | 34 | 1010.8 |
| 20260504195504 | 76 | 275 | 2.0 | 8.0 | 0.00 | 0.00 | 0.00 | 33 | 1010.9 |
| 20260504195005 | 76 | 212 | 3.0 | 10.0 | 0.00 | 0.00 | 0.00 | 34 | 1010.9 |
| 20260504194505 | 76 | 249 | 3.0 | 7.0 | 0.00 | 0.00 | 0.00 | 33 | 1011.0 |
| 20260504194004 | 76 | 249 | 3.0 | 9.0 | 0.00 | 0.00 | 0.00 | 33 | 1011.0 |
| 20260504193504 | 76 | 260 | 3.0 | 8.0 | 0.00 | 0.00 | 0.00 | 33 | 1011.1 |
| 20260504192505 | 77 | 166 | 3.0 | 9.0 | 0.00 | 0.00 | 0.00 | 34 | 1011.1 |
| 20260504192004 | 76 | 236 | 3.0 | 9.0 | 0.00 | 0.00 | 0.00 | 33 | 1011.2 |
| 20260504191005 | 76 | 14 | 3.0 | 6.0 | 0.00 | 0.00 | 0.00 | 34 | 1011.3 |
| 20260504190504 | 76 | 100 | 3.0 | 9.0 | 0.00 | 0.00 | 0.00 | 33 | 1011.4 |
| 20260504185505 | 76 | 221 | 2.0 | 7.0 | 0.00 | 0.00 | 0.00 | 36 | 1011.5 |
| 20260504184504 | 76 | 188 | 5.0 | 12.0 | 0.00 | 0.00 | 0.00 | 32 | 1011.6 |
| 20260504184004 | 76 | 225 | 3.0 | 10.0 | 0.00 | 0.00 | 0.00 | 34 | 1011.6 |
| 20260504183504 | 76 | 264 | 3.0 | 7.0 | 0.00 | 0.00 | 0.00 | 36 | 1011.6 |
| 20260504182505 | 75 | 297 | 5.0 | 10.0 | 0.00 | 0.00 | 0.00 | 34 | 1011.8 |
| 20260504181504 | 75 | 260 | 2.0 | 7.0 | 0.00 | 0.00 | 0.00 | 35 | 1011.9 |
| 20260504181005 | 75 | 308 | 4.0 | 9.0 | 0.00 | 0.00 | 0.00 | 35 | 1011.9 |
| 20260504180505 | 75 | 241 | 4.0 | 8.0 | 0.00 | 0.00 | 0.00 | 33 | 1012.0 |
| 20260504180004 | 75 | 273 | 4.0 | 15.0 | 0.00 | 0.00 | 0.00 | 34 | 1012.0 |
| 20260504175504 | 75 | 271 | 3.0 | 8.0 | 0.00 | 0.00 | 0.00 | 33 | 1012.1 |
| 20260504175004 | 75 | 218 | 4.0 | 10.0 | 0.00 | 0.00 | 0.00 | 33 | 1012.2 |
| 20260504173005 | 75 | 282 | 3.0 | 9.0 | 0.00 | 0.00 | 0.00 | 34 | 1012.4 |
| 20260504172004 | 74 | 292 | 4.0 | 8.0 | 0.00 | 0.00 | 0.00 | 34 | 1012.5 |
| 20260504171504 | 75 | 355 | 3.0 | 9.0 | 0.00 | 0.00 | 0.00 | 34 | 1012.6 |
| 20260504170504 | 74 | 215 | 3.0 | 8.0 | 0.00 | 0.00 | 0.00 | 38 | 1012.7 |
| 20260504140505 | 66 | 181 | 2.0 | 5.0 | 0.00 | 0.00 | 0.00 | 55 | 1014.1 |
| 20260504130504 | 63 | 148 | 2.0 | 5.0 | 0.00 | 0.00 | 0.00 | 60 | 1014.9 |
| 20260504110505 | 53 | 136 | 1.0 | 3.0 | 0.00 | 0.00 | 0.00 | 79 | 1015.6 |
| 20260504081004 | 52 | 174 | 2.0 | 3.0 | 0.00 | 0.00 | 0.00 | 77 | 1015.9 |
| 20260504080504 | 52 | 172 | 2.0 | 5.0 | 0.00 | 0.00 | 0.00 | 77 | 1015.8 |